Location: Serpentine
(32.3617°S, 115.9768°E)
Time: 15:51:22
(UTC+08:00)

ISS - Visible Passes

Search period start: 02 December 2021 00:00
Search period end: 12 December 2021 00:00
Orbit: 417 x 423 km, 51.6° (Epoch: 02 December)

Date Brightness Start Highest point End Pass type
(mag) Time Alt. Az. Time Alt. Az. Time Alt. Az.
02 Dec -1.0 02:22:24 16° SSW 02:22:24 16° SSW 02:23:55 10° S visible
03 Dec -0.4 01:36:45 13° SSE 01:36:45 13° SSE 01:37:13 10° SSE visible
11 Dec -1.2 21:45:07 17° SSE 21:45:07 17° SSE 21:46:02 10° SSE visible
